[[{"header":{"parameterUnit":"m.s-1","parameterCategory":1,"la1":30.2991,"la2":30.254,"lo1":-89.0895,"lo2":-89.0444,"dy":0.0017,"dx":0.0017,"nx":28,"ny":28,"refTime":"2025-08-17T21:00:00:Z","depth":0,"parameterNumber":2,"parameterNumberName":"U-component_of_WINDS"},"data":[0,0,0,0,0,0,0,0,0,0,0,0,0,0,0,0,0,0,0,0,0,0,0,0,0,0,0,0,0,0,0,0,0,0,0,0,0,0,0,0,0,0,0,0,0,0,0,0,0,0,0,0,0,0,0,0,0,0,1.3414,1.3415,0,1.3503,1.3504,1.3505,1.3488,1.3487,1.3485,1.3483,1.3577,1.3581,1.3585,0,0,0,0,0,0,0,0,0,0,0,0,0,1.323,1.3234,1.3414,1.3415,1.3416,1.3503,1.3504,1.3505,1.3488,1.3486,1.3485,1.3483,1.3576,1.358,1.3585,0,0,0,0,0,0,0,0,0,0,0,0,0,1.3314,1.3235,1.3413,1.3418,1.3419,1.3503,1.3504,1.3506,1.3489,1.3486,1.3484,1.3482,1.3574,1.358,1.3586,1.3671,0,0,1.3604,1.3607,0,0,0,0,0,0,0,0,1.3309,1.3321,1.3416,1.3418,1.3419,1.3482,1.3474,1.3561,1.3489,1.3462,1.3483,1.3481,1.3547,1.3555,1.3578,1.3675,1.3679,1.3605,1.3608,1.3611,1.3612,0,0,0,0,0,0,0,1.3303,1.3317,1.3449,1.3417,1.3419,1.3416,1.3425,1.349,1.3517,1.3465,1.3464,1.3474,1.3548,1.3572,1.358,1.3681,1.3604,1.361,1.3613,1.3616,1.3854,1.3857,0,0,0,0,0,0,1.3296,1.3312,1.3446,1.3452,1.3357,1.3421,1.3432,1.3464,1.3517,1.3522,1.3476,1.3473,1.3563,1.3573,1.3583,1.3686,1.3611,1.3616,1.362,1.3851,1.3855,1.3857,0,0,0,0,0,0,1.3292,1.3308,1.3443,1.3382,1.3398,1.3427,1.3464,1.3467,1.3491,1.3525,1.353,1.3496,1.3561,1.3574,1.3649,1.3689,1.3619,1.3624,1.3848,1.3852,1.3856,1.3894,0,0,0,0,0,0,1.3287,1.3307,1.3339,1.3382,1.3402,1.3507,1.3466,1.3471,1.3501,1.3498,1.3545,1.355,1.356,1.364,1.3655,1.3696,1.3629,1.3844,1.385,1.3855,1.3889,1.3899,1.3907,0,0,0,0,0,1.328,1.3346,1.334,1.3357,1.3442,1.3509,1.352,1.353,1.3505,1.3538,1.356,1.3549,1.3683,1.3648,1.3665,1.3708,1.3842,1.3848,1.3854,1.3885,1.3897,1.3907,0,0,0,0,0,0,1.3307,1.3352,1.3346,1.3428,1.3465,1.3506,1.3548,1.3542,1.3587,1.3582,1.3593,1.3604,1.368,1.3702,1.3662,1.3794,1.3759,1.3769,1.3777,1.3788,1.3797,1.379,1.3634,0,0,0,0,0,1.3322,1.3372,1.3409,1.3477,1.3496,1.3519,1.3548,1.3553,1.3591,1.3607,1.3635,1.3673,1.3724,1.3757,1.3806,1.3892,1.3903,1.3931,1.394,1.3947,1.3955,1.4003,1.4016,1.3878,1.3878,1.3878,0,0,1.3354,1.3385,1.3416,1.3484,1.3513,1.3565,1.3532,1.3588,1.3627,1.3616,1.3688,1.371,1.3754,1.3835,1.3872,1.3855,1.3995,1.3955,1.396,1.3964,1.4011,1.4024,1.4035,1.3882,1.3881,1.388,0,0,1.3439,1.3467,1.3528,1.3558,1.3602,1.3617,1.3631,1.3674,1.3688,1.376,1.3753,1.38,1.3887,1.3919,1.3947,1.4045,1.4037,1.4061,1.4107,1.4154,1.4164,1.4174,1.4209,1.4222,1.4069,1.4069,1.4069,0,1.3473,1.3551,1.356,1.3617,1.3647,1.3639,1.3701,1.373,1.3788,1.3809,1.379,1.3899,1.3929,1.4017,1.4041,1.4064,1.4081,1.4055,1.4162,1.4172,1.4181,1.4215,1.4228,1.4071,1.4071,1.4071,1.4071,0,1.3591,1.3645,1.3689,1.3745,1.378,1.3839,1.3858,1.3893,1.3894,1.3912,1.3986,1.4021,1.4076,1.4098,1.41,1.4187,1.4176,1.4159,1.4124,1.4197,1.4229,1.4242,1.4075,1.4074,1.4073,1.4073,0,0,1.3694,1.3755,1.3771,1.3796,1.3845,1.3888,1.3947,1.4001,1.4031,1.4072,1.4122,1.4197,1.4182,1.4213,1.4219,1.426,1.4336,1.4239,1.424,1.4256,1.4435,1.4447,1.4462,1.4331,1.4334,1.4336,1.4431,0,1.3784,1.3888,1.3898,1.3991,1.4042,1.4035,1.4087,1.4123,1.4141,1.4187,1.4207,1.426,1.4236,1.4255,1.4295,1.4318,1.4372,1.4312,1.4379,1.4381,1.4368,1.4478,1.4491,1.4579,1.4444,1.4446,1.4448,0,1.3902,1.3946,1.4044,1.4087,1.4108,1.4154,1.4205,1.4249,1.429,1.4301,1.4336,1.4337,1.4399,1.4362,1.4448,1.4407,1.4435,1.4451,1.4454,1.4461,1.4418,1.4488,1.4608,1.4621,1.4467,1.4466,1.4464,0,1.3967,1.4051,1.4121,1.4143,1.4194,1.4227,1.425,1.4289,1.4321,1.4366,1.4387,1.4439,1.4467,1.4508,1.4523,1.4494,1.4608,1.4572,1.4619,1.4619,1.4643,1.4641,1.4769,1.4662,1.4662,1.4661,1.4661,0,1.4066,1.4126,1.4151,1.4194,1.4262,1.4273,1.4341,1.4362,1.4397,1.4445,1.4443,1.4488,1.4505,1.4553,1.4565,1.4635,1.4648,1.4659,1.4661,1.4659,1.4657,1.4677,1.4671,1.4665,1.4664,1.4663,1.4663,0,1.415,1.4169,1.4244,1.4287,1.4299,1.4348,1.4384,1.4426,1.4444,1.4504,1.4519,1.4547,1.4604,1.4623,1.4692,1.47,1.4781,1.4779,1.4767,1.4768,1.4813,1.4809,1.4958,1.4979,1.4858,1.4859,1.486,0,1.4211,1.4257,1.4305,1.4337,1.4361,1.4412,1.4445,1.4459,1.4493,1.4544,1.458,1.4636,1.4682,1.4773,1.4799,1.4852,1.4851,1.49,1.4859,1.4855,1.4852,1.4849,1.4854,1.4907,1.4908,1.4909,1.491,0,1.4318,1.4326,1.4373,1.4424,1.4463,1.4504,1.4543,1.4569,1.4589,1.4628,1.4686,1.4721,1.4791,1.4847,1.4901,1.4926,1.4922,1.4923,1.4937,1.4934,1.4926,1.4931,1.4788,1.4919,1.4918,1.4918,1.4917,1.4917,1.4393,1.4434,1.4474,1.4527,1.4558,1.4596,1.4637,1.466,1.4708,1.4766,1.4772,1.4834,1.4875,1.4947,1.4975,1.5024,1.501,1.503,1.5035,1.504,1.5043,1.4918,1.5034,1.5034,1.5034,1.5033,1.5033,0,1.45,1.4526,1.4574,1.4629,1.4671,1.4664,1.4707,1.4743,1.4798,1.4836,1.4881,1.4948,1.5002,1.5034,1.5089,1.5122,1.5122,1.5136,1.5134,1.514,1.5052,1.5035,1.5136,1.5136,1.5136,1.5136,1.5136,1.5136,1.456,1.463,1.4642,1.4727,1.4753,1.4813,1.4839,1.4874,1.4905,1.4979,1.5024,1.5044,1.5081,1.5138,1.5188,1.5196,1.5216,1.5232,1.5239,1.5156,1.5146,1.5136,1.512,1.5236,1.5237,1.5322,1.5323,1.5324]},{"header":{"parameterUnit":"m.s-1","parameterCategory":1,"la1":30.2991,"la2":30.254,"lo1":-89.0895,"lo2":-89.0444,"dy":0.0017,"dx":0.0017,"nx":28,"ny":28,"refTime":"2025-08-17T21:00:00:Z","depth":0,"parameterNumber":3,"parameterNumberName":"V-component_of_WINDS"},"data":[0,0,0,0,0,0,0,0,0,0,0,0,0,0,0,0,0,0,0,0,0,0,0,0,0,0,0,0,0,0,0,0,0,0,0,0,0,0,0,0,0,0,0,0,0,0,0,0,0,0,0,0,0,0,0,0,0,0,1.213,1.2131,0,1.2161,1.2161,1.2161,1.2139,1.2138,1.2137,1.2136,1.2166,1.2168,1.2169,0,0,0,0,0,0,0,0,0,0,0,0,0,1.205,1.2052,1.213,1.2131,1.2131,1.2161,1.2161,1.2161,1.2139,1.2138,1.2137,1.2136,1.2166,1.2168,1.217,0,0,0,0,0,0,0,0,0,0,0,0,0,1.2083,1.2052,1.213,1.2124,1.2123,1.2161,1.2161,1.2162,1.2139,1.2138,1.2137,1.2135,1.2165,1.2167,1.217,1.2215,0,0,1.2178,1.2179,0,0,0,0,0,0,0,0,1.2081,1.2086,1.2124,1.2124,1.2124,1.2145,1.2144,1.2179,1.214,1.2133,1.2136,1.2134,1.216,1.2163,1.2172,1.2216,1.2218,1.2178,1.2179,1.2181,1.2181,0,0,0,0,0,0,0,1.2079,1.2085,1.2142,1.2125,1.2125,1.2118,1.2121,1.215,1.2154,1.2134,1.2132,1.2136,1.216,1.2169,1.2172,1.2218,1.2178,1.218,1.2182,1.2183,1.2299,1.2301,0,0,0,0,0,0,1.2078,1.2083,1.2141,1.2143,1.2098,1.2121,1.2124,1.2139,1.2154,1.2155,1.2137,1.2135,1.2166,1.2169,1.2173,1.2226,1.2181,1.2183,1.2184,1.2298,1.2299,1.2301,0,0,0,0,0,0,1.2076,1.2083,1.214,1.2113,1.2119,1.2124,1.2141,1.2141,1.2151,1.2157,1.2157,1.2147,1.2165,1.217,1.2204,1.2227,1.2184,1.2186,1.2296,1.2298,1.23,1.2333,0,0,0,0,0,0,1.2074,1.2083,1.2101,1.2113,1.2121,1.2172,1.2142,1.2142,1.2155,1.2152,1.2166,1.2167,1.2164,1.2201,1.2207,1.223,1.2188,1.2294,1.2297,1.2299,1.233,1.2336,1.2341,0,0,0,0,0,1.2071,1.2109,1.2102,1.2109,1.2144,1.2173,1.2178,1.2174,1.2157,1.2175,1.2178,1.2166,1.2223,1.2204,1.2211,1.2235,1.2292,1.2296,1.2299,1.2327,1.2335,1.2341,0,0,0,0,0,0,1.21,1.2111,1.2103,1.2146,1.2159,1.2169,1.2192,1.2183,1.22,1.2197,1.2191,1.2194,1.223,1.2236,1.2215,1.2278,1.2255,1.226,1.2274,1.2281,1.2287,1.2285,1.2191,0,0,0,0,0,1.2111,1.2135,1.2143,1.218,1.2187,1.2188,1.2201,1.2197,1.221,1.2215,1.2221,1.2233,1.2254,1.2268,1.2287,1.233,1.2332,1.2349,1.2355,1.236,1.2365,1.2386,1.2394,1.2313,1.2313,1.2312,0,0,1.2135,1.2144,1.2159,1.2186,1.2195,1.2219,1.2193,1.222,1.2237,1.2219,1.2252,1.2257,1.227,1.2309,1.2326,1.2314,1.2387,1.2364,1.2368,1.237,1.2391,1.2398,1.2405,1.2315,1.2314,1.2314,0,0,1.219,1.22,1.2231,1.2241,1.2255,1.2255,1.2262,1.2274,1.2276,1.2309,1.2296,1.2315,1.2351,1.2361,1.237,1.2426,1.2415,1.2432,1.2463,1.2484,1.249,1.2496,1.2515,1.2522,1.2437,1.2437,1.2437,0,1.2218,1.2254,1.2249,1.2276,1.2287,1.2271,1.2302,1.2311,1.2331,1.2339,1.2325,1.2369,1.2376,1.2417,1.243,1.2438,1.2446,1.2431,1.249,1.2496,1.2501,1.2519,1.2526,1.2439,1.2438,1.2438,1.2438,0,1.2287,1.2312,1.2335,1.2354,1.2368,1.2397,1.2395,1.2409,1.2403,1.2404,1.2437,1.2445,1.2465,1.2474,1.2469,1.2513,1.2505,1.2491,1.2467,1.2511,1.2528,1.2535,1.2442,1.2441,1.244,1.244,0,0,1.2364,1.2378,1.2386,1.2394,1.2407,1.2425,1.2452,1.2472,1.2484,1.2497,1.2519,1.2548,1.2534,1.2545,1.254,1.2559,1.2601,1.2542,1.2542,1.2553,1.2649,1.266,1.2668,1.2593,1.2595,1.2596,1.2648,0,1.242,1.2468,1.2462,1.2508,1.2529,1.2513,1.2536,1.2546,1.2547,1.2565,1.2565,1.2586,1.2567,1.2573,1.259,1.2592,1.262,1.2588,1.2613,1.2614,1.2611,1.2677,1.2689,1.2738,1.2654,1.2656,1.2656,0,1.2493,1.2508,1.2555,1.2562,1.2571,1.2592,1.2608,1.2626,1.2636,1.2635,1.2646,1.2637,1.2662,1.2637,1.2672,1.265,1.266,1.2662,1.2663,1.2666,1.2638,1.2682,1.2754,1.2761,1.2667,1.2666,1.2665,0,1.2543,1.2575,1.2607,1.2614,1.2624,1.2639,1.2643,1.2652,1.2663,1.2677,1.2683,1.27,1.2709,1.2721,1.2716,1.2699,1.2752,1.2727,1.2751,1.2752,1.2764,1.2764,1.2839,1.277,1.277,1.2769,1.2769,0,1.2607,1.2636,1.263,1.265,1.2681,1.2674,1.2705,1.2707,1.2714,1.2733,1.272,1.2738,1.273,1.2747,1.2744,1.2772,1.2776,1.2776,1.2775,1.2778,1.2778,1.2784,1.2781,1.2771,1.2771,1.2771,1.277,0,1.267,1.2667,1.27,1.2706,1.2708,1.2731,1.2735,1.2753,1.2752,1.2776,1.2781,1.2779,1.2799,1.2795,1.2816,1.2813,1.2849,1.2844,1.2846,1.2845,1.287,1.2867,1.2952,1.2963,1.2887,1.2887,1.2888,0,1.2711,1.2733,1.274,1.2752,1.2757,1.2776,1.2787,1.2779,1.2791,1.2802,1.2819,1.2836,1.285,1.2882,1.2882,1.2898,1.2892,1.2921,1.2895,1.2896,1.2892,1.2891,1.2893,1.2926,1.2927,1.2928,1.2928,0,1.2784,1.2781,1.2797,1.2812,1.2825,1.2837,1.2847,1.2857,1.285,1.2863,1.2883,1.2893,1.2914,1.2932,1.2946,1.2949,1.2938,1.2936,1.2943,1.2946,1.2947,1.2946,1.286,1.2935,1.2934,1.2934,1.2933,1.2933,1.2837,1.2855,1.2862,1.288,1.2887,1.2896,1.2912,1.2913,1.2928,1.2945,1.2939,1.296,1.2967,1.2985,1.299,1.3006,1.2995,1.3005,1.3008,1.301,1.3013,1.2944,1.3009,1.3009,1.3008,1.3008,1.3008,0,1.2909,1.2912,1.2928,1.2942,1.2956,1.2943,1.2953,1.2965,1.2984,1.2991,1.3005,1.3026,1.3042,1.3043,1.3058,1.307,1.3065,1.3075,1.3074,1.3075,1.3022,1.3015,1.3078,1.3078,1.3078,1.3078,1.3078,1.3078,1.2948,1.2977,1.2974,1.3006,1.3009,1.303,1.3036,1.3044,1.305,1.3074,1.3087,1.3087,1.3091,1.3106,1.312,1.3119,1.3125,1.3137,1.3135,1.3086,1.3079,1.3072,1.3065,1.3138,1.3138,1.3186,1.3186,1.3187]}]]